Notices

What's New in latest Release from April 7th, 2021:

- Updated Glossary, including Speed of Maximum Gust, and Total Hourly Precipitation

- Updated national and regional climate services offices contacts and prices information

- Addition of station inventory lists for 1981-2010, 1971-2000, and 1961-1990 Normals.

If you haven't already, please take our survey and provide feedback about our website: https://eccc.sondage-survey.ca/f/LanguageSelection.aspx?s=442ca660-fcf1-47c0-95a9-59707d6fd709

Hourly Data Report for October 29, 2019

CORAL HARBOUR A
NUNAVUT
Current Station Operator: NAVCAN

64°11'36.000" N
83°21'34.000" W
62.20 m
2301002
71915
YZS

Download Data

Hourly Data (October 2019)
Hourly Data Report for October 29, 2019
TIME
LST
Temp Definition
°C
Dew Point Definition
°C
Rel Hum Definition
%
Precip. Amount Definition
mm

Wind Dir Definition
10's deg

Wind Spd Definition
km/h
Visibility Definition
km
Stn Press Definition
kPa
Hmdx Definition


Wind Chill Definition


Weather Definition


00:00 0.0 -0.4 97   8 27 9.7 99.97   -6 Snow
01:00 0.0 -0.4 98   8 26 6.4 99.99   -6 Snow
02:00 0.0 -0.3 98   8 25 4.8 100.01   -6 Snow
03:00 0.0 -0.3 98   8 24 4.8 100.04   -6 Snow
04:00 -0.1 -0.3 98   7 21 4.8 100.06   -6 Snow
05:00 -0.2 -0.4 98   7 21 6.4 100.09   -6 Snow
06:00 -0.2 -0.4 98   8 21 4.8 100.14   -6 Snow
07:00 -0.2 -0.5 98   8 18 6.4 100.19   -5 Snow
08:00 -0.2 -0.4 98   9 16 4.8 100.21   -5 Snow
09:00 -0.2 -0.4 99   10 12 1.2 100.25   -4 Snow,Fog
10:00 -0.4 -0.5 99   10 12 0.4 100.27   -4 Snow,Freezing Fog
11:00 -1.1 -1.3 99   22 14 3.2 100.29   -6 Snow,Fog
12:00 -1.5 -1.7 99   23 19 4.8 100.33   -7 Snow
13:00 -1.6 -2.0 97   22 22 4.8 100.39   -8 Snow
14:00 -1.7 -2.3 96   23 23 24.1 100.44   -8 LegendNANA
15:00 -1.9 -2.6 95   24 22 24.1 100.45   -8 LegendNANA
16:00 -2.3 -3.0 95   24 18 24.1 100.48   -8 Cloudy
17:00 -2.5 -3.3 95   25 22 24.1 100.49   -9 Snow
18:00 -4.7 -5.3 96   25 16 24.1 100.50   -10 Snow
19:00 -4.1 -4.5 97   25 16 24.1 100.55   -10 Snow
20:00 -3.3 -3.8 97   25 16 24.1 100.57   -9 Snow
21:00 -2.9 -3.4 97   25 20 24.1 100.57   -9 Snow
22:00 -3.0 -3.5 96   26 20 24.1 100.56   -9 Snow
23:00 -3.0 -3.7 95   26 21 24.1 100.54   -9 Snow

Notes on Data Quality.

Legend

  • E = Estimated
  • M = Missing
  • NA = Not Available*
  • [empty] = Indicates an unobserved value
Date modified: